Showing default

HAWK-9B, 59450

Orbit data source: Space-Track

HAWK-9B, 59450 is a payload satellite owned by HawkEye 360 (US) in LEO that was launched on Sun, 07 Apr 2024 UTC via an FALCON 9 launch vehicle from the Air Force Eastern Test Range (AFETR). Payload-class satellites include a variety of spacecraft equipped with specific instruments for various scientific and technological missions. These include communications satellites like Starlink; space stations such as the ISS; scientific satellites like the Hubble; Earth observation satellites from companies like Planet Labs, Umbra, and HawkEye 360; GPS; miniature CubeSats for education and research; and military/defense satellites.

Loading next visibility...
Identifier
59450, 2024-066J
Orbit
LEO
Last TLE update
1 day ago
Origin
Manufacturer
UTIAS-SFL
Mission
Operational spacecraft
Bus & Motor
HAWK2G, Unknown motor
Mass
31 kg wet, 30 kg dry
Launch date (UTC)
2024-04-07 (1 year ago)
Launch vehicle
FALCON 9
Launch site
Air Force Eastern Test Range (AFETR)
Object type
Payload
Rocket body
Debris
Shape & HBR
Unknown
Radar Cross Section
Medium (>0.1 m² and <1 m²)

Expand to show TLE details & history

TLE from 1 day ago
0 HAWK-9B
1 59450U 24066J   25108.85582593  .00004052  00000-0  36955-3 0  9994
2 59450  45.6223 307.0748 0004657 275.7369  84.2981 14.96656664 56205
Epoch: 2025-04-18T20:32Z
Definitive object data (Epoch: 2025-04-18T20:32:23.36Z)
Latitude
0.00002°
Longitude
151.77011°
Altitude
576.982 km
Speed
7.574 km/s
True Right ascension
20h 28m 17s
True Declination
0° 00' 00"
Sunlit
Object was in daylight at TLE epoch
Visualization TLE readout
Latitude
-44.01969°
Longitude
76.56201°
Altitude
587.993 km
Speed
7.568 km/s
Apparent Right ascension
15h 16m 57s
Apparent Declination
-41° 54' 24"
Sunlit
Object is in full shadow
Visualization observer readout
Local Sidereal Time
03:06:11
Azimuth
224.75° SW
Elevation
-87.154°
Doppler factor
1
Orbital elements
Apogee altitude
581.96 km
Perigee altitude
575.48 km
Semi-major axis
6,956.857 km
Eccentricity
0.0004657
Inclination
45.6223°
RAAN
307.0748°
Arg. of periapsis
275.7369°
True anomaly
84.3512°
Mean anomaly
84.2981°
Eccentric anomaly
84.32465°
Mean motion
3.74045 °/min
BSTAR
0.00036955
Orbital period
96.25 mins
Loading maneuver chart data...
Loading SW <> Apogee altitude chart data...
Loading historical data...
Loading historical data...
Loading historical data...
Loading historical data...
Loading historical data...
Loading historical data...
Loading historical data...

HAWK-9B Visibility forecast

Observer location: undefined°, undefined°

Span
Click to sort rows by Start time (UTC) header in descending order
Start Az.
Max El. time (UTC)
Max El. Az.
Max El.
End time (UTC)
End Az.
8 mins2025-04-19 20:59:56.130Z298.945° NW2025-04-19 21:03:56.130Z40.431° NE41.623°2025-04-19 21:07:56.130Z102.402° ESE
6 mins2025-04-19 22:41:56.130Z269.657° W2025-04-19 22:43:56.130Z230.963° WSW28.112°2025-04-19 22:47:56.130Z154.689° SSE
6 mins2025-04-20 16:00:56.130Z220.474° SW2025-04-20 16:02:56.130Z167.917° S40.495°2025-04-20 16:06:56.130Z71.068° E
6 mins2025-04-20 17:41:56.130Z284.909° WNW2025-04-20 17:43:56.130Z335.715° NNW35.815°2025-04-20 17:47:56.130Z60.013° ENE
6 mins2025-04-20 19:22:56.130Z305.519° NW2025-04-20 19:25:56.130Z19.01° NNE32.18°2025-04-20 19:28:56.130Z72.698° E
|